| time (UTC) | temp F | wind direction | speed MPH | gust MPH | rain 1hr in | rain 24hr in | rain mn in | humidity % | barometer mb |
| 20260902154802 | 68 | 169 | 5.0 | 10.0 | 0.00 | 0.00 | 0.00 | 68 | 1004.6 |
| 20260902154302 | 68 | 170 | 4.0 | 10.0 | 0.00 | 0.00 | 0.00 | 69 | 1004.6 |
| 20260902153802 | 68 | 174 | 6.0 | 14.0 | 0.00 | 0.00 | 0.00 | 69 | 1004.6 |
| 20260902153303 | 69 | 169 | 5.0 | 10.0 | 0.00 | 0.00 | 0.00 | 70 | 1004.6 |
| 20260902152307 | 69 | 178 | 3.0 | 10.0 | 0.00 | 0.00 | 0.00 | 71 | 1004.6 |
| 20260902151802 | 69 | 168 | 5.0 | 13.0 | 0.00 | 0.00 | 0.00 | 70 | 1004.6 |
| 20260902150802 | 69 | 185 | 3.0 | 14.0 | 0.00 | 0.00 | 0.00 | 72 | 1004.6 |
| 20260902150302 | 69 | 151 | 3.0 | 8.0 | 0.00 | 0.00 | 0.00 | 72 | 1004.6 |
| 20260902145305 | 69 | 170 | 6.0 | 12.0 | 0.00 | 0.00 | 0.00 | 71 | 1004.6 |
| 20260902144803 | 69 | 171 | 6.0 | 13.0 | 0.00 | 0.00 | 0.00 | 70 | 1004.6 |
| 20260902144302 | 69 | 173 | 4.0 | 13.0 | 0.00 | 0.00 | 0.00 | 70 | 1004.6 |
| 20260902143802 | 69 | 172 | 3.0 | 13.0 | 0.00 | 0.00 | 0.00 | 70 | 1004.6 |
| 20260902143303 | 69 | 162 | 4.0 | 10.0 | 0.00 | 0.00 | 0.00 | 68 | 1004.6 |
| 20260902142305 | 69 | 180 | 4.0 | 10.0 | 0.00 | 0.00 | 0.00 | 67 | 1004.7 |
| 20260902141803 | 70 | 159 | 3.0 | 8.0 | 0.00 | 0.00 | 0.00 | 69 | 1004.7 |
| 20260902141302 | 70 | 165 | 5.0 | 12.0 | 0.00 | 0.00 | 0.00 | 68 | 1004.7 |
| 20260902140802 | 70 | 189 | 3.0 | 14.0 | 0.00 | 0.00 | 0.00 | 67 | 1004.8 |
| 20260902140302 | 70 | 157 | 3.0 | 14.0 | 0.00 | 0.00 | 0.00 | 67 | 1004.8 |
| 20260902135802 | 70 | 191 | 4.0 | 10.0 | 0.00 | 0.00 | 0.00 | 67 | 1004.8 |
| 20260902132306 | 69 | 172 | 5.0 | 12.0 | 0.00 | 0.02 | 0.00 | 67 | 1005.1 |
| 20260902131803 | 69 | 167 | 3.0 | 10.0 | 0.00 | 0.03 | 0.00 | 67 | 1005.1 |
| 20260902131303 | 70 | 182 | 4.0 | 10.0 | 0.00 | 0.03 | 0.00 | 65 | 1005.1 |
| 20260902130803 | 71 | 188 | 5.0 | 12.0 | 0.00 | 0.03 | 0.00 | 65 | 1005.1 |
| 20260902130302 | 70 | 180 | 5.0 | 10.0 | 0.00 | 0.04 | 0.00 | 65 | 1005.1 |
| 20260902125305 | 70 | 190 | 5.0 | 10.0 | 0.00 | 0.04 | 0.00 | 65 | 1005.0 |
| 20260902124803 | 70 | 184 | 5.0 | 12.0 | 0.00 | 0.04 | 0.00 | 65 | 1005.2 |
| 20260902124303 | 70 | 160 | 3.0 | 9.0 | 0.00 | 0.04 | 0.00 | 66 | 1005.2 |
| 20260902123802 | 70 | 182 | 5.0 | 10.0 | 0.00 | 0.04 | 0.00 | 65 | 1005.2 |
| 20260902123303 | 69 | 197 | 5.0 | 12.0 | 0.00 | 0.04 | 0.00 | 66 | 1005.2 |
| 20260902122802 | 69 | 182 | 3.0 | 9.0 | 0.00 | 0.04 | 0.00 | 68 | 1005.6 |
| 20260902121802 | 69 | 182 | 3.0 | 10.0 | 0.00 | 0.04 | 0.00 | 68 | 1005.6 |
| 20260902121302 | 69 | 190 | 3.0 | 7.0 | 0.00 | 0.04 | 0.00 | 68 | 1005.6 |
| 20260902120802 | 69 | 181 | 3.0 | 9.0 | 0.00 | 0.04 | 0.00 | 68 | 1005.7 |
| 20260902120302 | 69 | 178 | 3.0 | 10.0 | 0.00 | 0.04 | 0.00 | 68 | 1005.7 |
| 20260902115802 | 69 | 217 | 3.0 | 10.0 | 0.00 | 0.04 | 0.00 | 67 | 1005.7 |
| 20260902114803 | 69 | 193 | 1.0 | 12.0 | 0.00 | 0.04 | 0.00 | 67 | 1005.7 |
| 20260902114303 | 70 | 207 | 0.0 | 6.0 | 0.00 | 0.04 | 0.00 | 66 | 1005.7 |
| 20260902113802 | 70 | 232 | 2.0 | 7.0 | 0.00 | 0.04 | 0.00 | 65 | 1005.7 |
| 20260902113303 | 70 | 169 | 4.0 | 9.0 | 0.00 | 0.04 | 0.00 | 65 | 1005.9 |
| 20260902112802 | 70 | 170 | 2.0 | 10.0 | 0.00 | 0.04 | 0.00 | 65 | 1005.9 |
| 20260902111803 | 70 | 168 | 4.0 | 9.0 | 0.00 | 0.04 | 0.00 | 64 | 1005.9 |
| 20260902110802 | 69 | 183 | 3.0 | 10.0 | 0.00 | 0.04 | 0.00 | 68 | 1005.9 |
| 20260902110302 | 69 | 209 | 2.0 | 7.0 | 0.00 | 0.04 | 0.00 | 68 | 1006.0 |
| 20260902105803 | 69 | 250 | 2.0 | 8.0 | 0.00 | 0.04 | 0.00 | 68 | 1006.0 |
| 20260902105306 | 69 | 213 | 3.0 | 9.0 | 0.00 | 0.04 | 0.00 | 68 | 1006.1 |
| 20260902104802 | 68 | 223 | 3.0 | 9.0 | 0.00 | 0.04 | 0.00 | 69 | 1006.1 |
| 20260902103802 | 69 | 199 | 4.0 | 9.0 | 0.00 | 0.04 | 0.00 | 69 | 1006.1 |
| 20260902103302 | 68 | 167 | 2.0 | 8.0 | 0.00 | 0.04 | 0.00 | 71 | 1006.1 |
| 20260902102803 | 68 | 195 | 2.0 | 7.0 | 0.00 | 0.04 | 0.00 | 72 | 1006.1 |
| 20260902102307 | 68 | 210 | 3.0 | 9.0 | 0.00 | 0.04 | 0.00 | 72 | 1006.1 |
| 20260902101802 | 67 | 181 | 3.0 | 7.0 | 0.00 | 0.04 | 0.00 | 74 | 1006.1 |
| 20260902101302 | 67 | 211 | 2.0 | 7.0 | 0.00 | 0.04 | 0.00 | 76 | 1006.1 |
| 20260902100302 | 65 | 178 | 3.0 | 9.0 | 0.00 | 0.04 | 0.00 | 77 | 1006.1 |
| 20260902094802 | 64 | 238 | 3.0 | 8.0 | 0.00 | 0.04 | 0.00 | 79 | 1006.1 |
| 20260902093802 | 63 | 176 | 2.0 | 6.0 | 0.00 | 0.04 | 0.00 | 83 | 1006.1 |
| 20260902093302 | 63 | 205 | 3.0 | 5.0 | 0.00 | 0.04 | 0.00 | 83 | 1006.1 |
| 20260902092802 | 63 | 172 | 2.0 | 7.0 | 0.00 | 0.04 | 0.00 | 83 | 1006.1 |
| 20260902092305 | 62 | 233 | 3.0 | 9.0 | 0.00 | 0.04 | 0.00 | 83 | 1006.2 |
| 20260902091802 | 62 | 198 | 2.0 | 5.0 | 0.00 | 0.04 | 0.00 | 84 | 1006.2 |
| 20260902090802 | 62 | 206 | 3.0 | 8.0 | 0.00 | 0.04 | 0.00 | 85 | 1006.2 |
| 20260902090302 | 61 | 166 | 1.0 | 3.0 | 0.00 | 0.04 | 0.00 | 86 | 1006.2 |
| 20260902085803 | 61 | 192 | 3.0 | 7.0 | 0.00 | 0.04 | 0.00 | 86 | 1006.2 |
| 20260902085306 | 61 | 217 | 2.0 | 5.0 | 0.00 | 0.04 | 0.00 | 88 | 1006.2 |
| 20260902084803 | 61 | 211 | 3.0 | 7.0 | 0.00 | 0.04 | 0.00 | 88 | 1006.2 |
| 20260902084303 | 60 | 181 | 3.0 | 10.0 | 0.00 | 0.04 | 0.00 | 88 | 1006.2 |
| 20260902083803 | 60 | 189 | 3.0 | 10.0 | 0.00 | 0.04 | 0.00 | 89 | 1006.2 |
| 20260902083303 | 60 | 178 | 2.0 | 6.0 | 0.00 | 0.04 | 0.00 | 91 | 1006.2 |
| 20260902082802 | 60 | 157 | 2.0 | 5.0 | 0.00 | 0.04 | 0.00 | 92 | 1006.2 |
| 20260902082308 | 59 | 243 | 2.0 | 6.0 | 0.00 | 0.04 | 0.00 | 93 | 1006.2 |
| 20260902081803 | 59 | 325 | 1.0 | 2.0 | 0.00 | 0.04 | 0.00 | 94 | 1006.2 |
| 20260902081303 | 59 | 218 | 1.0 | 3.0 | 0.00 | 0.04 | 0.00 | 94 | 1006.2 |
| 20260902080802 | 59 | 208 | 2.0 | 7.0 | 0.00 | 0.04 | 0.00 | 95 | 1006.2 |
| 20260902080302 | 58 | 251 | 3.0 | 6.0 | 0.00 | 0.04 | 0.00 | 95 | 1006.1 |
| 20260902075803 | 59 | 318 | 2.0 | 6.0 | 0.00 | 0.04 | 0.00 | 96 | 1006.1 |
| 20260902075306 | 59 | 191 | 1.0 | 3.0 | 0.00 | 0.04 | 0.00 | 96 | 1006.1 |
| 20260902074802 | 58 | 165 | 1.0 | 2.0 | 0.00 | 0.04 | 0.00 | 96 | 1006.1 |
| 20260902073802 | 58 | 241 | 2.0 | 5.0 | 0.00 | 0.04 | 0.00 | 96 | 1006.2 |
| 20260902073303 | 58 | 223 | 1.0 | 6.0 | 0.00 | 0.04 | 0.00 | 96 | 1006.2 |
| 20260902072804 | 58 | 195 | 2.0 | 6.0 | 0.00 | 0.04 | 0.00 | 96 | 1006.2 |
| 20260902071803 | 58 | 246 | 3.0 | 7.0 | 0.00 | 0.04 | 0.00 | 96 | 1006.2 |
| 20260902071303 | 57 | 196 | 1.0 | 6.0 | 0.00 | 0.04 | 0.00 | 96 | 1005.9 |
| 20260902070803 | 57 | 211 | 2.0 | 7.0 | 0.00 | 0.04 | 0.00 | 96 | 1005.9 |
| 20260902070303 | 57 | 185 | 2.0 | 6.0 | 0.00 | 0.04 | 0.00 | 96 | 1005.9 |
| 20260902065802 | 57 | 171 | 2.0 | 6.0 | 0.00 | 0.04 | 0.00 | 96 | 1005.9 |
| 20260902065306 | 57 | 201 | 1.0 | 5.0 | 0.00 | 0.04 | 0.00 | 96 | 1005.9 |
| 20260902064803 | 57 | 186 | 1.0 | 3.0 | 0.00 | 0.04 | 0.00 | 96 | 1005.9 |
| 20260902063803 | 56 | 280 | 1.0 | 3.0 | 0.00 | 0.04 | 0.00 | 96 | 1005.9 |
| 20260902063303 | 56 | 219 | 2.0 | 3.0 | 0.00 | 0.04 | 0.00 | 96 | 1005.9 |
| 20260902062802 | 56 | 232 | 3.0 | 8.0 | 0.00 | 0.04 | 0.00 | 96 | 1005.9 |
| 20260902062305 | 56 | 255 | 1.0 | 3.0 | 0.00 | 0.04 | 0.00 | 96 | 1005.9 |
| 20260902061802 | 56 | 236 | 1.0 | 3.0 | 0.00 | 0.04 | 0.00 | 96 | 1005.9 |
| 20260902061302 | 56 | 243 | 1.0 | 5.0 | 0.00 | 0.04 | 0.00 | 96 | 1005.9 |
| 20260902060803 | 56 | 152 | 0.0 | 2.0 | 0.00 | 0.04 | 0.00 | 96 | 1005.9 |
| 20260902060303 | 56 | 151 | 0.0 | 3.0 | 0.00 | 0.04 | 0.00 | 96 | 1005.9 |
| 20260902055804 | 56 | 219 | 0.0 | 3.0 | 0.00 | 0.04 | 0.00 | 96 | 1005.9 |
| 20260902054802 | 56 | 177 | 1.0 | 3.0 | 0.00 | 0.04 | 0.00 | 96 | 1005.9 |
| 20260902054302 | 55 | 175 | 0.0 | 2.0 | 0.00 | 0.04 | 0.00 | 96 | 1005.9 |
| 20260902053802 | 55 | 214 | 0.0 | 3.0 | 0.00 | 0.04 | 0.00 | 96 | 1005.9 |
| 20260902052306 | 55 | 194 | 0.0 | 3.0 | 0.00 | 0.04 | 0.00 | 96 | 1005.9 |
| 20260902051803 | 55 | 221 | 0.0 | 3.0 | 0.00 | 0.04 | 0.00 | 96 | 1005.9 |
| 20260902051302 | 55 | 198 | 1.0 | 3.0 | 0.00 | 0.04 | 0.00 | 96 | 1005.9 |
| 20260902050303 | 54 | 236 | 0.0 | 2.0 | 0.00 | 0.04 | 0.00 | 96 | 1005.9 |
| 20260902045803 | 54 | 236 | 0.0 | 0.0 | 0.00 | 0.04 | 0.00 | 96 | 1005.9 |
| 20260902044802 | 54 | 236 | 0.0 | 0.0 | 0.00 | 0.04 | 0.00 | 95 | 1005.9 |
| 20260902044303 | 55 | 236 | 0.0 | 0.0 | 0.00 | 0.04 | 0.00 | 95 | 1005.9 |
| 20260902043803 | 55 | 236 | 0.0 | 0.0 | 0.00 | 0.04 | 0.00 | 96 | 1005.9 |
| 20260902041802 | 55 | 236 | 0.0 | 3.0 | 0.00 | 0.04 | 0.00 | 95 | 1005.9 |
| 20260902041302 | 55 | 222 | 0.0 | 3.0 | 0.00 | 0.04 | 0.00 | 96 | 1005.9 |
| 20260902040803 | 55 | 225 | 0.0 | 1.0 | 0.00 | 0.04 | 0.00 | 96 | 1005.9 |
| 20260902040303 | 55 | 225 | 0.0 | 2.0 | 0.00 | 0.04 | 0.00 | 96 | 1005.9 |
| 20260902035305 | 55 | 225 | 0.0 | 2.0 | 0.00 | 0.04 | 0.00 | 96 | 1005.9 |
| 20260902034802 | 55 | 221 | 1.0 | 2.0 | 0.00 | 0.04 | 0.00 | 96 | 1005.9 |
| 20260902034302 | 55 | 272 | 0.0 | 2.0 | 0.00 | 0.04 | 0.00 | 96 | 1005.9 |
| 20260902033803 | 55 | 205 | 0.0 | 1.0 | 0.00 | 0.04 | 0.00 | 96 | 1005.9 |
| 20260902033302 | 55 | 205 | 0.0 | 2.0 | 0.00 | 0.04 | 0.00 | 96 | 1005.9 |
| 20260902032803 | 55 | 205 | 0.0 | 2.0 | 0.00 | 0.04 | 0.00 | 96 | 1005.9 |
| 20260902032305 | 55 | 202 | 0.0 | 1.0 | 0.00 | 0.04 | 0.00 | 95 | 1006.0 |
| 20260902031303 | 55 | 221 | 0.0 | 1.0 | 0.00 | 0.04 | 0.00 | 95 | 1006.0 |
| 20260902030802 | 55 | 221 | 0.0 | 1.0 | 0.00 | 0.04 | 0.00 | 95 | 1006.0 |
| 20260902030303 | 55 | 221 | 0.0 | 1.0 | 0.00 | 0.04 | 0.00 | 95 | 1006.0 |
| 20260902025803 | 55 | 221 | 0.0 | 2.0 | 0.00 | 0.04 | 0.00 | 95 | 1006.0 |
| 20260902025306 | 55 | 252 | 0.0 | 1.0 | 0.00 | 0.04 | 0.00 | 95 | 1006.2 |
| 20260902024803 | 55 | 252 | 0.0 | 1.0 | 0.00 | 0.04 | 0.00 | 95 | 1006.2 |
| 20260902024302 | 55 | 252 | 1.0 | 2.0 | 0.00 | 0.04 | 0.00 | 95 | 1006.2 |
| 20260902023803 | 55 | 240 | 0.0 | 1.0 | 0.00 | 0.04 | 0.00 | 95 | 1006.2 |
| 20260902023302 | 55 | 236 | 1.0 | 3.0 | 0.00 | 0.04 | 0.00 | 95 | 1006.2 |
| 20260902022803 | 54 | 232 | 0.0 | 1.0 | 0.00 | 0.04 | 0.00 | 95 | 1006.2 |
| 20260902022306 | 54 | 232 | 0.0 | 1.0 | 0.00 | 0.04 | 0.00 | 95 | 1006.2 |
| 20260902021804 | 54 | 232 | 0.0 | 2.0 | 0.00 | 0.04 | 0.00 | 95 | 1006.2 |
| 20260902021302 | 54 | 158 | 0.0 | 2.0 | 0.00 | 0.04 | 0.00 | 95 | 1006.2 |
| 20260902020802 | 54 | 202 | 1.0 | 2.0 | 0.00 | 0.04 | 0.00 | 95 | 1006.2 |
| 20260902020302 | 54 | 153 | 0.0 | 1.0 | 0.00 | 0.04 | 0.00 | 95 | 1006.2 |
| 20260902015802 | 54 | 153 | 0.0 | 1.0 | 0.00 | 0.04 | 0.00 | 95 | 1006.2 |
| 20260902014302 | 54 | 153 | 0.0 | 1.0 | 0.00 | 0.04 | 0.00 | 95 | 1006.2 |
| 20260902013802 | 54 | 153 | 0.0 | 1.0 | 0.00 | 0.04 | 0.00 | 95 | 1006.2 |
| 20260902012803 | 54 | 153 | 1.0 | 2.0 | 0.00 | 0.04 | 0.00 | 95 | 1006.2 |
| 20260902012308 | 54 | 153 | 1.0 | 2.0 | 0.00 | 0.04 | 0.00 | 95 | 1006.2 |
| 20260902011802 | 54 | 153 | 1.0 | 2.0 | 0.00 | 0.04 | 0.00 | 95 | 1006.2 |
| 20260902011303 | 54 | 153 | 1.0 | 2.0 | 0.00 | 0.04 | 0.00 | 95 | 1006.2 |
| 20260902010803 | 54 | 153 | 1.0 | 2.0 | 0.00 | 0.04 | 0.00 | 94 | 1006.2 |
| 20260902005803 | 54 | 153 | 1.0 | 2.0 | 0.00 | 0.04 | 0.00 | 94 | 1006.2 |
| 20260902005306 | 54 | 153 | 1.0 | 2.0 | 0.00 | 0.04 | 0.00 | 94 | 1006.2 |
| 20260902004803 | 54 | 153 | 1.0 | 2.0 | 0.00 | 0.04 | 0.00 | 94 | 1006.2 |
| 20260902004302 | 54 | 153 | 1.0 | 2.0 | 0.00 | 0.04 | 0.00 | 94 | 1006.2 |
| 20260902003802 | 54 | 153 | 1.0 | 1.0 | 0.00 | 0.04 | 0.00 | 94 | 1006.2 |
| 20260902003303 | 54 | 153 | 1.0 | 2.0 | 0.00 | 0.04 | 0.00 | 94 | 1006.2 |
| 20260902002803 | 54 | 153 | 1.0 | 2.0 | 0.00 | 0.04 | 0.00 | 94 | 1006.2 |
| 20260902002306 | 54 | 153 | 1.0 | 2.0 | 0.00 | 0.04 | 0.00 | 94 | 1006.2 |
| 20260902001803 | 54 | 153 | 1.0 | 2.0 | 0.00 | 0.04 | 0.00 | 94 | 1006.2 |
| 20260902001303 | 54 | 153 | 1.0 | 1.0 | 0.00 | 0.04 | 0.00 | 94 | 1006.2 |
| 20260902000802 | 54 | 153 | 1.0 | 2.0 | 0.00 | 0.04 | 0.00 | 94 | 1006.2 |
| 20260902000304 | 54 | 153 | 1.0 | 1.0 | 0.00 | 0.04 | 0.00 | 93 | 1006.2 |
| 20260901235802 | 54 | 153 | 1.0 | 2.0 | 0.00 | 0.04 | 0.00 | 93 | 1006.2 |
| 20260901235307 | 54 | 153 | 1.0 | 1.0 | 0.00 | 0.04 | 0.00 | 93 | 1006.2 |
| 20260901234805 | 54 | 153 | 1.0 | 2.0 | 0.00 | 0.04 | 0.00 | 93 | 1006.2 |
| 20260901233802 | 54 | 153 | 1.0 | 2.0 | 0.00 | 0.04 | 0.00 | 93 | 1006.2 |
| 20260901233303 | 54 | 5 | 1.0 | 2.0 | 0.00 | 0.04 | 0.00 | 93 | 1006.2 |
| 20260901232803 | 54 | 5 | 1.0 | 2.0 | 0.00 | 0.04 | 0.00 | 93 | 1006.2 |
| 20260901232306 | 55 | 5 | 1.0 | 1.0 | 0.00 | 0.04 | 0.00 | 93 | 1006.2 |
| 20260901231303 | 55 | 5 | 0.0 | 0.0 | 0.00 | 0.04 | 0.00 | 93 | 1006.2 |
| 20260901230802 | 55 | 5 | 0.0 | 0.0 | 0.00 | 0.04 | 0.00 | 93 | 1006.2 |
| 20260901225802 | 55 | 5 | 0.0 | 0.0 | 0.00 | 0.04 | 0.00 | 93 | 1006.2 |
| 20260901224803 | 55 | 5 | 0.0 | 0.0 | 0.00 | 0.04 | 0.00 | 92 | 1006.2 |
| 20260901224303 | 55 | 5 | 0.0 | 0.0 | 0.00 | 0.04 | 0.00 | 92 | 1006.2 |
| 20260901223302 | 55 | 5 | 0.0 | 0.0 | 0.00 | 0.04 | 0.00 | 92 | 1006.2 |
| 20260901222803 | 56 | 5 | 0.0 | 0.0 | 0.00 | 0.04 | 0.00 | 92 | 1006.2 |
| 20260901222306 | 56 | 5 | 0.0 | 0.0 | 0.00 | 0.04 | 0.00 | 92 | 1006.2 |
| 20260901221803 | 56 | 5 | 0.0 | 0.0 | 0.00 | 0.04 | 0.00 | 92 | 1006.2 |
| 20260901221303 | 56 | 5 | 0.0 | 0.0 | 0.00 | 0.04 | 0.00 | 92 | 1006.2 |
| 20260901220815 | 56 | 5 | 0.0 | 0.0 | 0.00 | 0.04 | 0.00 | 92 | 1006.2 |
| 20260901215803 | 56 | 5 | 0.0 | 0.0 | 0.00 | 0.04 | 0.04 | 92 | 1006.2 |
| 20260901215305 | 56 | 5 | 0.0 | 0.0 | 0.00 | 0.04 | 0.04 | 92 | 1006.2 |
| 20260901214803 | 56 | 5 | 0.0 | 0.0 | 0.00 | 0.04 | 0.04 | 92 | 1006.2 |
| 20260901214303 | 56 | 5 | 0.0 | 0.0 | 0.00 | 0.04 | 0.04 | 92 | 1006.2 |
| 20260901213803 | 56 | 5 | 0.0 | 0.0 | 0.00 | 0.04 | 0.04 | 91 | 1006.2 |
| 20260901213302 | 57 | 5 | 0.0 | 0.0 | 0.00 | 0.04 | 0.04 | 91 | 1006.2 |
| 20260901212803 | 57 | 5 | 0.0 | 0.0 | 0.00 | 0.04 | 0.04 | 91 | 1006.2 |
| 20260901212306 | 57 | 5 | 0.0 | 0.0 | 0.00 | 0.04 | 0.04 | 91 | 1006.2 |
| 20260901211803 | 57 | 5 | 0.0 | 0.0 | 0.00 | 0.04 | 0.04 | 91 | 1006.2 |
| 20260901211303 | 57 | 5 | 0.0 | 0.0 | 0.00 | 0.04 | 0.04 | 91 | 1006.2 |
| 20260901210803 | 57 | 5 | 0.0 | 0.0 | 0.00 | 0.04 | 0.04 | 91 | 1006.2 |
| 20260901210303 | 57 | 5 | 0.0 | 0.0 | 0.00 | 0.04 | 0.04 | 91 | 1006.2 |
| 20260901205803 | 57 | 5 | 0.0 | 0.0 | 0.00 | 0.04 | 0.04 | 91 | 1006.2 |
| 20260901205306 | 57 | 5 | 0.0 | 0.0 | 0.00 | 0.04 | 0.04 | 91 | 1006.2 |
| 20260901204303 | 57 | 5 | 0.0 | 0.0 | 0.00 | 0.04 | 0.04 | 91 | 1006.2 |
| 20260901203303 | 58 | 5 | 0.0 | 0.0 | 0.00 | 0.04 | 0.04 | 91 | 1006.2 |
| 20260901202803 | 58 | 5 | 0.0 | 0.0 | 0.00 | 0.04 | 0.04 | 91 | 1006.2 |
| 20260901202306 | 58 | 5 | 0.0 | 0.0 | 0.00 | 0.04 | 0.04 | 91 | 1006.2 |
| 20260901201303 | 58 | 5 | 0.0 | 0.0 | 0.00 | 0.04 | 0.04 | 91 | 1006.3 |
| 20260901200803 | 58 | 5 | 0.0 | 0.0 | 0.00 | 0.04 | 0.04 | 91 | 1006.1 |
| 20260901200303 | 58 | 5 | 0.0 | 0.0 | 0.00 | 0.04 | 0.04 | 90 | 1006.1 |
| 20260901195305 | 58 | 5 | 0.0 | 0.0 | 0.00 | 0.04 | 0.04 | 90 | 1006.1 |
| 20260901194803 | 58 | 5 | 0.0 | 0.0 | 0.00 | 0.04 | 0.04 | 90 | 1006.1 |
| 20260901194302 | 59 | 5 | 0.0 | 0.0 | 0.00 | 0.04 | 0.04 | 90 | 1006.1 |
| 20260901193803 | 59 | 5 | 0.0 | 0.0 | 0.00 | 0.04 | 0.04 | 90 | 1006.1 |
| 20260901193303 | 59 | 5 | 0.0 | 0.0 | 0.00 | 0.04 | 0.04 | 90 | 1006.1 |
| 20260901192804 | 59 | 5 | 0.0 | 0.0 | 0.00 | 0.04 | 0.04 | 90 | 1006.1 |
| 20260901192306 | 59 | 5 | 0.0 | 0.0 | 0.00 | 0.04 | 0.04 | 90 | 1006.1 |
| 20260901191803 | 59 | 5 | 0.0 | 0.0 | 0.00 | 0.04 | 0.04 | 89 | 1006.1 |
| 20260901191303 | 60 | 5 | 0.0 | 0.0 | 0.00 | 0.04 | 0.04 | 89 | 1006.1 |
| 20260901190803 | 60 | 5 | 0.0 | 0.0 | 0.00 | 0.04 | 0.04 | 90 | 1006.1 |
| 20260901190303 | 60 | 5 | 0.0 | 0.0 | 0.00 | 0.04 | 0.04 | 90 | 1006.1 |
| 20260901185803 | 60 | 5 | 0.0 | 0.0 | 0.00 | 0.04 | 0.04 | 89 | 1006.1 |
| 20260901184803 | 61 | 5 | 0.0 | 0.0 | 0.00 | 0.04 | 0.04 | 89 | 1006.1 |
| 20260901184303 | 61 | 5 | 0.0 | 0.0 | 0.00 | 0.04 | 0.04 | 89 | 1006.1 |
| 20260901183303 | 61 | 5 | 0.0 | 0.0 | 0.00 | 0.04 | 0.04 | 89 | 1006.0 |
| 20260901182803 | 61 | 5 | 0.0 | 0.0 | 0.00 | 0.04 | 0.04 | 89 | 1006.0 |
| 20260901182305 | 61 | 5 | 0.0 | 1.0 | 0.00 | 0.04 | 0.04 | 90 | 1006.0 |
| 20260901181803 | 62 | 5 | 0.0 | 0.0 | 0.00 | 0.04 | 0.04 | 90 | 1006.0 |
| 20260901181302 | 62 | 5 | 0.0 | 1.0 | 0.00 | 0.04 | 0.04 | 90 | 1006.0 |
| 20260901180803 | 62 | 5 | 0.0 | 2.0 | 0.00 | 0.04 | 0.04 | 90 | 1006.0 |
| 20260901180303 | 62 | 5 | 1.0 | 2.0 | 0.00 | 0.04 | 0.04 | 90 | 1006.0 |
| 20260901175803 | 62 | 5 | 1.0 | 2.0 | 0.00 | 0.04 | 0.04 | 89 | 1006.0 |
| 20260901175305 | 62 | 5 | 0.0 | 0.0 | 0.00 | 0.04 | 0.04 | 89 | 1006.0 |
| 20260901174803 | 62 | 5 | 0.0 | 2.0 | 0.00 | 0.04 | 0.04 | 89 | 1005.9 |
| 20260901173803 | 63 | 46 | 1.0 | 2.0 | 0.00 | 0.04 | 0.04 | 89 | 1005.9 |
| 20260901173303 | 63 | 16 | 1.0 | 3.0 | 0.00 | 0.04 | 0.04 | 89 | 1005.9 |
| 20260901172803 | 63 | 15 | 0.0 | 0.0 | 0.00 | 0.04 | 0.04 | 88 | 1005.9 |
| 20260901172305 | 63 | 15 | 0.0 | 2.0 | 0.00 | 0.04 | 0.04 | 88 | 1005.9 |
| 20260901171803 | 63 | 38 | 1.0 | 3.0 | 0.00 | 0.04 | 0.04 | 88 | 1005.7 |
| 20260901171303 | 63 | 22 | 1.0 | 3.0 | 0.00 | 0.04 | 0.04 | 88 | 1005.7 |
| 20260901170802 | 64 | 32 | 1.0 | 2.0 | 0.00 | 0.04 | 0.04 | 88 | 1005.7 |
| 20260901170303 | 64 | 34 | 0.0 | 2.0 | 0.00 | 0.04 | 0.04 | 88 | 1005.7 |
| 20260901165306 | 64 | 34 | 1.0 | 2.0 | 0.00 | 0.04 | 0.04 | 87 | 1005.7 |
| 20260901164803 | 64 | 14 | 0.0 | 2.0 | 0.00 | 0.04 | 0.04 | 87 | 1005.5 |
| 20260901164303 | 64 | 46 | 0.0 | 1.0 | 0.00 | 0.04 | 0.04 | 87 | 1005.5 |
| 20260901163803 | 64 | 55 | 1.0 | 3.0 | 0.00 | 0.04 | 0.04 | 87 | 1005.5 |
| 20260901163303 | 64 | 5 | 0.0 | 3.0 | 0.00 | 0.04 | 0.04 | 87 | 1005.5 |
| 20260901162305 | 65 | 38 | 1.0 | 3.0 | 0.00 | 0.04 | 0.04 | 87 | 1005.5 |
| 20260901161303 | 65 | 43 | 1.0 | 3.0 | 0.00 | 0.04 | 0.04 | 87 | 1005.5 |
| 20260901160803 | 65 | 19 | 1.0 | 3.0 | 0.00 | 0.04 | 0.04 | 86 | 1005.5 |
| 20260901160302 | 65 | 4 | 1.0 | 3.0 | 0.00 | 0.04 | 0.04 | 86 | 1005.5 |
| 20260901155306 | 66 | 39 | 0.0 | 2.0 | 0.00 | 0.04 | 0.04 | 85 | 1005.3 |